Terminal Aerodrome Forecast
Issued by NWS

Home | Current Version | Previous Version | Text Only | Print | Product List | Glossary On
Versions: 1 2 3 4 5 6 7 8 9 10 11 12 13 14 15 16 17 18 19 20 21 22 23 24 25 26 27 28 29 30 31 32
000
FTUS43 KDLH 182300 AAC
TAFHIB
TAF AMD
KHIB 182302Z 1823/1918 00000KT P6SM BKN050 BKN060
     FM190200 VRB02KT 3/4SM BR VCSH OVC003
     FM191500 01003KT 2SM BR OVC007=

USA.gov is the U.S. government's official web portal to all federal, state and local government web resources and services.